Location: Northern Prairie Star Party
(53.2167°N, 112.5333°W)
Time: 05:42:25
(UTC-06:00)

Amateur Radio Satellites - All Passes

Search period start: 26 May 2015 05:12
Search period end: 27 May 2015 05:12
Location: Northern Prairie Star Party, 53.2167°N, 112.5333°W

Satellite Date Start Highest point End Downlink Frequencies (MHz)
Time Altitude Azimuth
Cosmos 2491 26 May 05:15:20 05:22:07 24° 49° (NE) 05:29:06 435.465 / 435.565
Cosmos 2499 26 May 05:31:41 05:35:28 15° 286° (WNW) 05:38:54 435.465 / 435.565
SO-50 26 May 05:32:43 05:37:31 85° 317° (NW) 05:42:27 436.795
AUBIESAT-1 26 May 05:35:35 05:35:41 10° 47° (NE) 05:35:57 437.475
HORYU 2 26 May 05:39:27 05:43:57 89° 287° (WNW) 05:48:23 437.375
STRAND 1 26 May 05:41:16 05:44:30 18° 52° (NE) 05:47:52 437.568
PCSat 26 May 05:41:43 05:45:53 22° 345° (NNW) 05:50:01 145.827
JAS-2 26 May 05:52:36 05:57:53 85° 290° (WNW) 06:03:07 435.910
AIST 2 26 May 06:00:09 06:02:04 13° 248° (WSW) 06:03:51 435.215
ISS 26 May 06:02:13 06:05:12 32° 204° (SSW) 06:08:11 145.825
ITAMSAT 1 26 May 06:18:33 06:21:49 17° 309° (NW) 06:24:57 435.822/435.867
YUBILEINY 26 May 06:20:41 06:24:38 15° 68° (ENE) 06:29:04 435.215
CUBESAT XI-V 26 May 06:22:40 06:27:09 54° 70° (ENE) 06:31:42 437.345
MOZHAYETS 4 26 May 06:25:27 06:28:55 20° 271° (W) 06:32:17
PRISM 26 May 06:34:59 06:38:43 36° 66° (ENE) 06:42:31 437.425
AIST 1 26 May 06:42:49 06:43:54 11° 54° (NE) 06:45:11
CUTE-I 26 May 06:43:52 06:47:32 19° 87° (E) 06:51:22 437.470
Gurwin Techsat 1B 26 May 06:51:56 06:53:38 11° 315° (NW) 06:55:09 435.225
M-CUBED/EXP-1 PRIME 26 May 06:56:50 07:00:49 51° 64° (ENE) 07:04:30 437.505
AO-7 26 May 06:58:18 07:06:32 64° 299° (WNW) 07:14:45 29.400- 29.500
Cubesat XI-IV 26 May 07:03:43 07:08:11 27° 91° (E) 07:12:43 437.490
AUBIESAT-1 26 May 07:05:54 07:09:52 55° 65° (ENE) 07:13:33 437.475
Cosmos 2491 26 May 07:11:56 07:20:50 76° 75° (ENE) 07:29:41 435.465 / 435.565
SO-50 26 May 07:14:24 07:18:42 30° 338° (NNW) 07:23:03 436.795
HORYU 2 26 May 07:17:14 07:20:01 16° 305° (NW) 07:22:41 437.375
STRAND 1 26 May 07:17:56 07:23:02 80° 70° (ENE) 07:28:11 437.568
PCSat 26 May 07:27:10 07:31:10 20° 11° (N) 07:35:11 145.827
JAS-2 26 May 07:38:52 07:42:22 18° 309° (NW) 07:45:41 435.910
CUBESAT XI-V 26 May 08:01:10 08:04:57 24° 270° (W) 08:08:40 437.345
PRISM 26 May 08:10:38 08:14:16 29° 265° (W) 08:17:52 437.425
YUBILEINY 26 May 08:11:12 08:19:39 57° 91° (E) 08:28:08 435.215
AIST 1 26 May 08:18:12 08:22:34 65° 76° (ENE) 08:26:56
CUTE-I 26 May 08:22:59 08:28:22 84° 290° (WNW) 08:33:46 437.470
M-CUBED/EXP-1 PRIME 26 May 08:32:42 08:35:54 21° 261° (W) 08:38:50 437.505
HO-68 26 May 08:32:51 08:36:16 14° 79° (E) 08:40:04 435.675
AUBIESAT-1 26 May 08:41:55 08:44:55 19° 261° (W) 08:47:41 437.475
Cubesat XI-IV 26 May 08:43:25 08:48:42 61° 292° (WNW) 08:54:00 437.490
DOVE 4 26 May 08:47:35 08:49:55 13° 80° (E) 08:52:24 437.250
AO-7 26 May 08:51:44 08:58:00 24° 323° (NW) 09:04:06 29.400- 29.500
SO-50 26 May 08:56:46 09:00:36 22° 2° (N) 09:04:29 436.795
STRAND 1 26 May 08:59:19 09:02:56 19° 273° (W) 09:06:25 437.568
Cosmos 2491 26 May 09:09:29 09:17:04 33° 279° (W) 09:24:26 435.465 / 435.565
PCSat 26 May 09:10:55 09:16:02 39° 36° (NE) 09:21:08 145.827
BRITE-PL 26 May 09:11:48 09:17:15 43° 95° (E) 09:22:33 437.365/2234.400
GOMX 1 26 May 09:18:54 09:23:50 34° 92° (E) 09:28:37 467.674
RS-15 26 May 09:21:09 09:30:29 36° 109° (ESE) 09:40:16 29.354- 29.394
ANTELSAT 26 May 09:34:20 09:37:29 19° 57° (ENE) 09:40:43 437.575/2403.000
CANX-2 26 May 09:39:17 09:43:01 30° 94° (E) 09:46:45 2200.000
CUTE 1.7 + AOD 2 26 May 09:42:58 09:46:41 29° 94° (E) 09:50:25 437.475
QB50P2 26 May 09:44:00 09:45:26 12° 52° (NE) 09:47:01 145.880/145.840
Oscar 11 26 May 09:49:24 09:50:46 11° 83° (E) 09:52:20 145.826/435.025
POPSAT HIP 1 26 May 09:55:35 09:57:47 14° 54° (NE) 10:00:06 437.405
AIST 1 26 May 09:56:50 09:59:48 18° 275° (W) 10:02:39
Cosmos 2504 26 May 09:57:18 10:04:04 31° 83° (E) 10:10:39 435.465 / 435.565
DUCHIFAT 1 26 May 09:58:08 10:00:22 14° 55° (NE) 10:02:44 145.980
CUTE-I 26 May 10:04:02 10:07:48 19° 308° (NW) 10:11:27 437.470
TIGRISAT 26 May 10:06:24 10:10:28 31° 63° (ENE) 10:14:33 435.000
SEEDS 26 May 10:06:43 10:10:42 41° 98° (E) 10:14:40 437.485
CINEMA 3 26 May 10:07:38 10:11:53 30° 92° (E) 10:16:00 145.822/145.860
YUBILEINY 26 May 10:08:30 10:16:50 45° 295° (WNW) 10:25:07 435.215
UWE-3 26 May 10:17:45 10:20:33 17° 86° (E) 10:23:25 435.000/436.395/437.385
HO-68 26 May 10:18:36 10:25:43 62° 103° (ESE) 10:32:48 435.675
COMPASS 1 26 May 10:21:12 10:25:13 46° 98° (E) 10:29:15 437.405
DOVE 4 26 May 10:23:28 10:28:45 73° 103° (ESE) 10:33:44 437.250
BUGSAT 1 26 May 10:24:11 10:26:52 17° 57° (ENE) 10:29:41 437.445
Cubesat XI-IV 26 May 10:24:58 10:27:54 15° 312° (NW) 10:30:41 437.490
UNISAT 6 26 May 10:26:02 10:30:29 44° 68° (ENE) 10:34:54 437.425
FUNcube-1 26 May 10:29:53 10:32:42 17° 87° (E) 10:35:33 145.935
AAUSAT CUBESAT 2 26 May 10:34:00 10:38:05 54° 100° (E) 10:42:08 437.432
QB50P1 26 May 10:37:53 10:41:34 29° 63° (ENE) 10:45:20 145.935-145.965
SO-50 26 May 10:37:56 10:42:26 34° 26° (NNE) 10:46:58 436.795
POLYITAN 1 26 May 10:39:21 10:43:08 30° 64° (ENE) 10:46:58 437.675
AO-7 26 May 10:44:40 10:47:51 13° 350° (N) 10:50:58 29.400- 29.500
BRITE-PL 26 May 10:50:24 10:55:45 41° 296° (WNW) 11:00:56 437.365/2234.400
PCSat 26 May 10:54:22 10:59:43 58° 238° (WSW) 11:05:02 145.827
GOMX 1 26 May 10:56:51 11:02:09 49° 293° (WNW) 11:07:12 467.674
CUBEBUG 2 26 May 11:04:16 11:08:43 50° 99° (E) 11:12:59 437.445
DELFI C3 26 May 11:06:23 11:10:13 42° 98° (E) 11:14:04 145.870
NANOSAT C BR1 26 May 11:08:56 11:13:06 52° 69° (ENE) 11:17:19 145.865
ANTELSAT 26 May 11:09:04 11:13:47 82° 256° (WSW) 11:18:26 437.575/2403.000
ZACube-1 26 May 11:09:19 11:13:25 37° 96° (E) 11:17:26 437.345
HUMSAT D 26 May 11:10:04 11:13:08 20° 89° (E) 11:16:14 437.325/437.525
UKube-1 26 May 11:13:11 11:16:25 20° 90° (E) 11:19:44 .
CANX-2 26 May 11:15:06 11:19:01 37° 294° (WNW) 11:22:54 2200.000
QB50P2 26 May 11:16:18 11:20:34 63° 70° (ENE) 11:24:51 145.880/145.840
CUTE 1.7 + AOD 2 26 May 11:18:47 11:22:42 37° 293° (WNW) 11:26:34 437.475
DX 1 26 May 11:20:34 11:24:13 25° 93° (E) 11:27:55 434.975-435.025
Oscar 11 26 May 11:23:26 11:27:46 80° 104° (ESE) 11:32:05 145.826/435.025
POPSAT HIP 1 26 May 11:28:43 11:33:01 79° 73° (ENE) 11:37:21 437.405
RS-15 26 May 11:30:50 11:41:49 86° 315° (NW) 11:53:17 29.354- 29.394
DUCHIFAT 1 26 May 11:31:16 11:35:34 82° 71° (ENE) 11:39:53 145.980
VELOX 1 26 May 11:32:09 11:35:17 19° 89° (E) 11:38:32 145.980
ESTCUBE 1 26 May 11:32:56 11:34:53 13° 84° (E) 11:37:02 437.505/2401.250
CUBEBUG 1 26 May 11:33:52 11:35:07 11° 83° (E) 11:36:37 437.445
TIGRISAT 26 May 11:42:36 11:47:06 44° 262° (W) 11:51:33 435.000
SEEDS 26 May 11:42:47 11:46:22 27° 297° (WNW) 11:49:54 437.485
CINEMA 3 26 May 11:44:37 11:49:17 45° 293° (WNW) 11:53:41 145.822/145.860
Cosmos 2504 26 May 11:48:45 11:56:59 73° 284° (WNW) 12:04:40 435.465 / 435.565
UWE-3 26 May 11:53:12 11:57:42 73° 287° (WNW) 12:02:00 435.000/436.395/437.385
COMPASS 1 26 May 11:57:18 12:00:43 24° 298° (WNW) 12:04:04 437.405
BUGSAT 1 26 May 11:57:40 12:01:51 78° 256° (WSW) 12:06:07 437.445
DOVE 4 26 May 12:01:52 12:06:00 23° 303° (WNW) 12:09:55 437.250
AISAT 26 May 12:02:56 12:07:04 35° 96° (E) 12:11:13 437.250
UNISAT 6 26 May 12:03:17 12:07:25 29° 266° (W) 12:11:29 437.425
FUNcube-1 26 May 12:05:11 12:09:35 70° 288° (WNW) 12:13:50 145.935
HO-68 26 May 12:06:41 12:13:15 39° 304° (NW) 12:19:42 435.675
AAUSAT CUBESAT 2 26 May 12:10:12 12:13:24 22° 299° (WNW) 12:16:33 437.432
YUBILEINY 26 May 12:11:57 12:16:43 15° 324° (NW) 12:21:09 435.215
QB50P1 26 May 12:13:16 12:17:20 41° 263° (W) 12:21:26 145.935-145.965
POLYITAN 1 26 May 12:14:53 12:18:58 39° 263° (W) 12:23:03 437.675
50 SAT 26 May 12:15:49 12:19:37 47° 99° (E) 12:23:22 437.505
SO-50 26 May 12:18:29 12:23:28 80° 228° (SW) 12:28:25 436.795
CUSAT 1 26 May 12:20:57 12:26:14 21° 77° (ENE) 12:32:05 437.405
BRITE-PL 26 May 12:31:13 12:32:56 11° 316° (NW) 12:34:25 437.365/2234.400
Oscar 19 26 May 12:32:15 12:36:21 25° 57° (ENE) 12:40:32 437.125/150
AO-7 26 May 12:33:15 12:37:09 14° 19° (NNE) 12:41:12 29.400- 29.500
GOMX 1 26 May 12:36:51 12:39:06 12° 313° (NW) 12:41:08 467.674
PCSat 26 May 12:40:16 12:42:09 11° 257° (WSW) 12:43:46 145.827
TISAT 1 26 May 12:41:20 12:42:43 11° 84° (E) 12:44:17 437.305
CUBEBUG 2 26 May 12:41:22 12:45:10 26° 299° (WNW) 12:48:48 437.445
DELFI C3 26 May 12:41:50 12:45:10 25° 297° (WNW) 12:48:28 145.870
GONETS M04 26 May 12:42:06 12:48:43 25° 77° (ENE) 12:55:36
HUMSAT D 26 May 12:45:07 12:49:16 56° 289° (WNW) 12:53:19 437.325/437.525
ZACube-1 26 May 12:45:48 12:49:44 32° 296° (WNW) 12:53:32 437.345
NANOSAT C BR1 26 May 12:45:51 12:49:15 22° 269° (W) 12:52:36 145.865
ITAMSAT 1 26 May 12:46:57 12:49:23 14° 48° (NE) 12:51:59 435.822/435.867
UKube-1 26 May 12:48:38 12:52:57 58° 290° (WNW) 12:57:14 .
ANTELSAT 26 May 12:49:01 12:51:21 13° 276° (W) 12:53:29 437.575/2403.000
QB50P2 26 May 12:53:48 12:56:54 19° 271° (W) 12:59:55 145.880/145.840
DX 1 26 May 12:56:27 13:00:43 48° 292° (WNW) 13:04:56 434.975-435.025
Oscar 11 26 May 13:00:37 13:03:27 17° 303° (WNW) 13:06:11 145.826/435.025
POPSAT HIP 1 26 May 13:06:56 13:09:31 15° 274° (W) 13:11:57 437.405
VELOX 1 26 May 13:07:51 13:12:21 67° 289° (WNW) 13:16:48 145.980
CUBEBUG 1 26 May 13:07:53 13:12:22 75° 104° (ESE) 13:16:49 437.445
ESTCUBE 1 26 May 13:08:00 13:12:34 83° 105° (ESE) 13:17:07 437.505/2401.250
DUCHIFAT 1 26 May 13:09:34 13:12:00 14° 274° (W) 13:14:19 145.980
Gurwin Techsat 1B 26 May 13:19:11 13:23:01 21° 54° (NE) 13:26:58 435.225
DANDE 26 May 13:25:24 13:32:15 40° 87° (E) 13:40:02 436.750
UWE-3 26 May 13:31:14 13:33:29 14° 307° (NW) 13:35:34 435.000/436.395/437.385
BUGSAT 1 26 May 13:37:01 13:38:11 11° 277° (W) 13:39:08 437.445
AISAT 26 May 13:39:32 13:43:41 36° 295° (WNW) 13:47:46 437.250
FUNcube-1 26 May 13:43:09 13:45:10 13° 307° (NW) 13:47:02 145.935
RS-15 26 May 13:44:58 13:55:41 50° 346° (NNW) 14:06:52 29.354- 29.394
Cosmos 2504 26 May 13:45:59 13:51:56 21° 309° (NW) 13:57:25 435.465 / 435.565
SPROUT 26 May 13:49:14 13:53:34 62° 101° (ESE) 13:57:52 437.525
50 SAT 26 May 13:51:01 13:54:05 22° 299° (WNW) 13:57:04 437.505
HO-68 26 May 13:55:46 13:59:12 14° 328° (NNW) 14:02:26 435.675
CUSAT 1 26 May 14:00:04 14:07:42 72° 98° (E) 14:16:03 437.405
SO-50 26 May 14:00:08 14:03:22 17° 247° (WSW) 14:06:27 436.795
Oscar 19 26 May 14:10:06 14:15:18 70° 257° (WSW) 14:20:32 437.125/150
TISAT 1 26 May 14:14:59 14:19:19 81° 106° (ESE) 14:23:34 437.305
AO-7 26 May 14:20:33 14:27:27 31° 45° (NE) 14:34:29 29.400- 29.500
ITAMSAT 1 26 May 14:22:54 14:27:57 58° 68° (ENE) 14:33:05 435.822/435.867
HUMSAT D 26 May 14:23:58 14:24:10 10° 309° (NW) 14:24:13 437.325/437.525
UKube-1 26 May 14:26:52 14:28:16 11° 310° (NW) 14:29:31 .
JAS-2 26 May 14:27:45 14:32:06 21° 54° (NE) 14:36:17 435.910
Cosmos 2499 26 May 14:29:52 14:35:07 21° 78° (ENE) 14:40:25 435.465 / 435.565
GONETS M04 26 May 14:35:39 14:44:31 88° 100° (E) 14:53:26
CUBEBUG 1 26 May 14:45:06 14:48:17 19° 302° (WNW) 14:51:21 437.445
ESTCUBE 1 26 May 14:45:51 14:48:55 18° 304° (NW) 14:51:54 437.505/2401.250
VELOX 1 26 May 14:46:04 14:48:09 13° 308° (NW) 14:50:05 145.980
ITUPSAT 1 26 May 14:49:42 14:54:06 35° 96° (E) 14:58:29 437.325
Gurwin Techsat 1B 26 May 14:57:06 15:02:26 86° 252° (WSW) 15:07:49 435.225
BEESAT 26 May 14:57:43 15:02:14 41° 97° (E) 15:06:46 436.000
SWISSCUBE 26 May 15:06:03 15:10:44 52° 100° (E) 15:15:25 437.505
DANDE 26 May 15:07:34 15:15:09 66° 290° (WNW) 15:23:45 436.750
HORYU 2 26 May 15:07:55 15:11:44 28° 62° (ENE) 15:15:36 437.375
KKS-1 26 May 15:11:49 15:13:55 13° 85° (E) 15:16:11 437.445
SPROUT 26 May 15:25:58 15:29:18 21° 300° (WNW) 15:32:32 437.525
O/OREOS (USA 219) 26 May 15:31:10 15:32:09 11° 98° (E) 15:33:21 437.305
CUSAT 1 26 May 15:43:49 15:51:07 38° 301° (WNW) 15:58:44 437.405
TISAT 1 26 May 15:51:46 15:54:35 17° 303° (WNW) 15:57:17 437.305
Oscar 19 26 May 15:53:24 15:55:45 13° 278° (W) 15:57:51 437.125/150
RS-15 26 May 15:59:44 16:10:42 52° 18° (NNE) 16:22:11 29.354- 29.394
ITAMSAT 1 26 May 16:03:29 16:07:51 27° 268° (W) 16:12:12 435.822/435.867
JAS-2 26 May 16:10:11 16:16:41 84° 73° (ENE) 16:22:27 435.910
AO-7 26 May 16:11:06 16:19:26 87° 68° (ENE) 16:27:50 29.400- 29.500
STARS 26 May 16:16:04 16:20:03 32° 95° (E) 16:24:02 437.465
YUBILEINY 26 May 16:17:21 16:21:13 14° 33° (NNE) 16:25:25 435.215
Cosmos 2499 26 May 16:19:20 16:27:21 82° 99° (E) 16:34:48 435.465 / 435.565
ITUPSAT 1 26 May 16:27:35 16:32:03 39° 295° (WNW) 16:36:30 437.325
GONETS M04 26 May 16:35:05 16:42:42 30° 306° (NW) 16:50:09
CUTE-I 26 May 16:35:17 16:37:37 13° 46° (NE) 16:40:08 437.470
BEESAT 26 May 16:35:43 16:40:02 34° 297° (WNW) 16:44:18 436.000
Gurwin Techsat 1B 26 May 16:39:56 16:43:18 16° 275° (W) 16:46:31 435.225
HORYU 2 26 May 16:43:54 16:48:14 45° 261° (W) 16:52:34 437.375
SWISSCUBE 26 May 16:44:19 16:48:24 28° 299° (WNW) 16:52:25 437.505
KKS-1 26 May 16:46:48 16:51:20 87° 105° (ESE) 16:55:49 437.445
DANDE 26 May 16:54:02 17:00:19 23° 315° (NW) 17:06:43 436.750
Cubesat XI-IV 26 May 16:54:27 16:57:47 18° 51° (NE) 17:01:16 437.490
O/OREOS (USA 219) 26 May 17:06:19 17:10:49 70° 116° (ESE) 17:15:18 437.305
HO-68 26 May 17:28:07 17:28:08 10° 23° (NNE) 17:28:20 435.675
CUSAT 1 26 May 17:32:13 17:36:32 14° 326° (NNW) 17:40:36 437.405
STARS 26 May 17:52:26 17:56:35 38° 295° (WNW) 18:00:41 437.465
JAS-2 26 May 17:57:40 18:02:29 21° 272° (W) 18:06:46 435.910
AO-7 26 May 18:06:28 18:13:23 27° 271° (W) 18:20:08 29.400- 29.500
CUTE-I 26 May 18:11:32 18:16:41 54° 67° (ENE) 18:21:54 437.470
MOZHAYETS 4 26 May 18:12:33 18:17:07 64° 102° (ESE) 18:21:40
RS-15 26 May 18:12:54 18:24:26 88° 226° (SW) 18:36:28 29.354- 29.394
YUBILEINY 26 May 18:13:14 18:21:19 41° 62° (ENE) 18:29:28 435.215
Cosmos 2499 26 May 18:14:45 18:21:24 28° 302° (WNW) 18:27:36 435.465 / 435.565
KKS-1 26 May 18:24:28 18:27:25 17° 305° (NW) 18:30:16 437.445
Cosmos 2491 26 May 18:28:23 18:33:42 19° 72° (ENE) 18:39:23 435.465 / 435.565
Cubesat XI-IV 26 May 18:31:50 18:37:08 75° 71° (ENE) 18:42:31 437.490
BEESAT 2 26 May 18:37:30 18:40:02 16° 115° (ESE) 18:42:42 435.950
GONETS M04 26 May 18:41:45 18:43:37 11° 337° (NNW) 18:45:11
O/OREOS (USA 219) 26 May 18:47:01 18:50:42 24° 318° (NW) 18:54:21 437.305
BRITE-PL 26 May 18:52:11 18:55:49 19° 53° (NE) 18:59:42 437.365/2234.400
GOMX 1 26 May 18:57:30 19:00:28 15° 50° (NE) 19:03:38 467.674
HO-68 26 May 19:07:56 19:13:32 26° 48° (NE) 19:19:15 435.675
STRAND 1 26 May 19:23:04 19:26:23 17° 86° (E) 19:29:50 437.568
BEESAT 3 26 May 19:25:21 19:29:16 46° 126° (SE) 19:33:15 437.485
SEEDS 26 May 19:32:21 19:33:38 11° 53° (NE) 19:35:04 437.485
Cosmos 2504 26 May 19:41:12 19:45:40 17° 46° (NE) 19:50:17 435.465 / 435.565
CINEMA 3 26 May 19:41:13 19:43:17 13° 50° (NE) 19:45:32 145.822/145.860
COMPASS 1 26 May 19:45:42 19:47:21 12° 54° (NE) 19:49:08 437.405
PRISM 26 May 19:46:23 19:49:48 25° 93° (E) 19:53:17 437.425
CUBESAT XI-V 26 May 19:50:11 19:54:50 57° 100° (E) 19:59:29 437.345
MOZHAYETS 4 26 May 19:50:28 19:53:59 22° 301° (WNW) 19:57:26
CUTE-I 26 May 19:52:26 19:57:05 30° 267° (W) 20:01:43 437.470
AAUSAT CUBESAT 2 26 May 19:57:40 19:59:42 14° 55° (NE) 20:01:52 437.432
DOVE 4 26 May 19:58:03 20:02:23 27° 60° (ENE) 20:06:52 437.250
AIST 2 26 May 20:01:45 20:05:30 30° 121° (ESE) 20:09:18 435.215
M-CUBED/EXP-1 PRIME 26 May 20:08:43 20:09:27 11° 93° (E) 20:10:21 437.505
YUBILEINY 26 May 20:10:09 20:18:43 63° 267° (W) 20:27:12 435.215
BEESAT 2 26 May 20:13:27 20:17:36 88° 311° (NW) 20:21:48 435.950
Cubesat XI-IV 26 May 20:13:52 20:17:54 21° 272° (W) 20:21:50 437.490
AUBIESAT-1 26 May 20:16:50 20:17:57 11° 94° (E) 20:19:13 437.475
Cosmos 2491 26 May 20:20:20 20:29:02 69° 95° (E) 20:37:49 435.465 / 435.565
RS-15 26 May 20:25:48 20:35:47 34° 252° (WSW) 20:45:48 29.354- 29.394
BRITE-PL 26 May 20:28:18 20:33:31 81° 75° (ENE) 20:39:10 437.365/2234.400
DELFI C3 26 May 20:28:39 20:29:06 10° 53° (NE) 20:29:42 145.870
GOMX 1 26 May 20:32:26 20:37:37 63° 71° (ENE) 20:43:04 467.674
CUBEBUG 2 26 May 20:33:38 20:36:38 17° 56° (NE) 20:39:44 437.445
ZACube-1 26 May 20:37:46 20:39:43 13° 53° (NE) 20:41:48 437.345
CANX-2 26 May 20:37:58 20:42:04 47° 69° (ENE) 20:46:11 2200.000
CUTE 1.7 + AOD 2 26 May 20:41:35 20:45:40 47° 69° (ENE) 20:49:46 437.475
Oscar 11 26 May 20:49:22 20:52:36 21° 60° (ENE) 20:55:54 145.826/435.025
HO-68 26 May 20:53:16 21:00:27 83° 69° (ENE) 21:07:42 435.675
AIST 1 26 May 20:54:42 20:58:15 27° 89° (E) 21:01:54
STRAND 1 26 May 21:01:10 21:06:21 86° 288° (WNW) 21:11:31 437.568
BEESAT 3 26 May 21:03:29 21:07:22 37° 326° (NNW) 21:11:15 437.485
SEEDS 26 May 21:04:31 21:08:42 64° 72° (ENE) 21:12:53 437.485
CINEMA 3 26 May 21:14:38 21:19:33 56° 69° (ENE) 21:24:30 145.822/145.860
COMPASS 1 26 May 21:18:11 21:22:21 72° 73° (ENE) 21:26:32 437.405
UWE-3 26 May 21:20:11 21:24:16 31° 64° (ENE) 21:28:23 435.000/436.395/437.385
PRISM 26 May 21:21:29 21:25:28 44° 292° (WNW) 21:29:24 437.425
CUBESAT XI-V 26 May 21:28:09 21:31:59 25° 300° (WNW) 21:35:46 437.345
AAUSAT CUBESAT 2 26 May 21:30:32 21:34:43 82° 75° (ENE) 21:38:54 437.432
FUNcube-1 26 May 21:31:01 21:35:00 30° 64° (ENE) 21:39:00 145.935
AISAT 26 May 21:33:09 21:35:06 13° 52° (NE) 21:37:13 437.250
Cosmos 2504 26 May 21:33:43 21:40:59 62° 73° (ENE) 21:48:05 435.465 / 435.565
DOVE 4 26 May 21:34:37 21:39:46 63° 259° (W) 21:45:06 437.250
50 SAT 26 May 21:35:02 21:36:03 11° 54° (NE) 21:37:14 437.505
AIST 2 26 May 21:39:43 21:43:55 53° 321° (NW) 21:48:10 435.215
M-CUBED/EXP-1 PRIME 26 May 21:41:32 21:44:55 72° 292° (WNW) 21:48:12 437.505
AUBIESAT-1 26 May 21:49:57 21:53:18 67° 294° (WNW) 21:56:34 437.475
BEESAT 2 26 May 21:52:42 21:56:13 25° 336° (NNW) 21:59:43 435.950
DELFI C3 26 May 21:59:29 22:03:28 61° 72° (ENE) 22:07:27 145.870
HUMSAT D 26 May 22:07:26 22:11:16 32° 65° (ENE) 22:15:08 437.325/437.525
CUBEBUG 2 26 May 22:07:56 22:12:44 87° 71° (ENE) 22:17:31 437.445
YUBILEINY 26 May 22:08:51 22:13:52 16° 290° (WNW) 22:18:29 435.215
BRITE-PL 26 May 22:08:54 22:12:49 20° 276° (W) 22:16:47 437.365/2234.400
ZACube-1 26 May 22:10:45 22:15:19 65° 72° (ENE) 22:19:51 437.345
GOMX 1 26 May 22:11:48 22:16:12 26° 272° (W) 22:20:41 467.674
UKube-1 26 May 22:13:39 22:17:39 38° 65° (ENE) 22:21:42 .
CANX-2 26 May 22:14:44 22:18:15 24° 269° (W) 22:21:42 2200.000
DANDE 26 May 22:17:20 22:22:29 18° 37° (NE) 22:27:28 436.750
CUTE 1.7 + AOD 2 26 May 22:18:19 22:21:49 24° 268° (W) 22:25:17 437.475
Cosmos 2491 26 May 22:18:31 22:26:39 38° 300° (WNW) 22:34:44 435.465 / 435.565
DX 1 26 May 22:21:52 22:26:03 47° 67° (ENE) 22:30:18 434.975-435.025
Oscar 11 26 May 22:24:08 22:28:26 61° 259° (WSW) 22:32:46 145.826/435.025
AIST 1 26 May 22:31:45 22:35:47 39° 289° (WNW) 22:39:51
CUBEBUG 1 26 May 22:35:05 22:38:22 22° 59° (ENE) 22:41:46 437.445
VELOX 1 26 May 22:35:23 22:39:26 36° 64° (ENE) 22:43:32 145.980
ESTCUBE 1 26 May 22:37:56 22:41:35 26° 61° (ENE) 22:45:20 437.505/2401.250
STRAND 1 26 May 22:41:21 22:44:56 19° 307° (NW) 22:48:24 437.568
GONETS M04 26 May 22:41:49 22:47:57 21° 44° (NE) 22:54:18
SEEDS 26 May 22:42:02 22:44:57 18° 272° (W) 22:47:46 437.485
HO-68 26 May 22:43:12 22:49:06 26° 272° (W) 22:54:51 435.675
BEESAT 3 26 May 22:43:30 22:46:22 18° 349° (N) 22:49:13 437.485
CUSAT 1 26 May 22:50:27 22:56:39 25° 48° (NE) 23:02:09 437.405
CINEMA 3 26 May 22:52:47 22:57:03 27° 269° (W) 23:01:17 145.822/145.860
COMPASS 1 26 May 22:55:57 22:58:34 16° 273° (W) 23:01:04 437.405
UWE-3 26 May 22:56:10 23:00:40 44° 262° (W) 23:05:09 435.000/436.395/437.385
ANTELSAT 26 May 22:56:26 22:58:39 14° 85° (E) 23:01:01 437.575/2403.000
50 SAT 26 May 23:06:06 23:10:04 67° 73° (ENE) 23:14:03 437.505
AISAT 26 May 23:06:30 23:10:56 67° 71° (ENE) 23:15:24 437.250
FUNcube-1 26 May 23:06:48 23:11:13 43° 263° (W) 23:15:34 145.935
AAUSAT CUBESAT 2 26 May 23:08:45 23:10:58 14° 274° (W) 23:13:01 437.432
SPROUT 26 May 23:15:09 23:17:58 17° 57° (ENE) 23:20:53 437.525
DOVE 4 26 May 23:16:44 23:18:43 12° 281° (WNW) 23:20:27 437.250
M-CUBED/EXP-1 PRIME 26 May 23:19:04 23:19:11 10° 313° (NW) 23:19:11 437.505
AIST 2 26 May 23:20:03 23:23:22 21° 344° (NNW) 23:26:39 435.215
Cosmos 2504 26 May 23:27:39 23:33:59 33° 276° (W) 23:40:06 435.465 / 435.565
TIGRISAT 26 May 23:28:23 23:32:03 25° 92° (E) 23:35:43 435.000
BEESAT 2 26 May 23:32:50 23:35:33 17° 359° (N) 23:38:15 435.950
BUGSAT 1 26 May 23:35:51 23:37:04 11° 83° (E) 23:38:30 437.445
DELFI C3 26 May 23:36:14 23:38:59 17° 271° (W) 23:41:39 145.870
TISAT 1 26 May 23:38:39 23:41:48 21° 59° (ENE) 23:45:04 437.305
HUMSAT D 26 May 23:42:58 23:46:59 36° 264° (W) 23:50:59 437.325/437.525
CUBEBUG 2 26 May 23:47:08 23:50:07 16° 275° (W) 23:52:56 437.445
UNISAT 6 26 May 23:48:29 23:52:40 39° 97° (E) 23:56:45 437.425
ZACube-1 26 May 23:48:41 23:52:07 20° 271° (W) 23:55:27 437.345
UKube-1 26 May 23:49:59 23:53:52 31° 265° (W) 23:57:44 .
O/OREOS (USA 219) 26 May 23:52:21 23:55:06 16° 34° (NNE) 23:57:56 437.305
QB50P1 26 May 23:52:24 23:55:44 22° 91° (E) 23:59:09 145.935-145.965
POLYITAN 1 26 May 23:54:16 23:57:43 23° 91° (E) 00:01:11 437.675
DX 1 26 May 23:58:53 00:02:33 25° 268° (W) 00:06:09 434.975-435.025
DANDE 27 May 00:00:08 00:08:12 49° 63° (ENE) 00:14:56 436.750
CUBEBUG 1 27 May 00:10:02 00:14:23 62° 259° (WSW) 00:18:47 437.445
Cosmos 2499 27 May 00:11:41 00:13:56 12° 38° (NE) 00:16:28 435.465 / 435.565
VELOX 1 27 May 00:11:55 00:16:01 34° 264° (W) 00:20:07 145.980
ESTCUBE 1 27 May 00:13:51 00:18:14 52° 260° (W) 00:22:39 437.505/2401.250
ISS 27 May 00:22:42 00:23:51 12° 141° (SE) 00:25:05 145.825
BEESAT 3 27 May 00:22:46 00:25:43 18° 13° (NNE) 00:28:39 437.485
Cosmos 2491 27 May 00:23:04 00:27:01 13° 330° (NNW) 00:30:40 435.465 / 435.565
NANOSAT C BR1 27 May 00:23:23 00:27:27 41° 97° (E) 00:31:30 145.865
ITUPSAT 1 27 May 00:27:14 00:30:01 16° 53° (NE) 00:32:57 437.325
QB50P2 27 May 00:31:15 00:35:27 49° 99° (E) 00:39:38 145.880/145.840
ANTELSAT 27 May 00:31:43 00:36:12 87° 286° (WNW) 00:40:33 437.575/2403.000
CUSAT 1 27 May 00:32:56 00:40:48 83° 75° (ENE) 00:47:02 437.405
BEESAT 27 May 00:34:33 00:37:42 18° 55° (NE) 00:40:57 436.000
GONETS M04 27 May 00:38:17 00:47:03 64° 72° (ENE) 00:55:45
SWISSCUBE 27 May 00:42:32 00:46:04 22° 57° (ENE) 00:49:43 437.505
50 SAT 27 May 00:42:45 00:45:16 16° 272° (W) 00:47:40 437.505
POPSAT HIP 1 27 May 00:43:31 00:47:49 63° 102° (ESE) 00:52:04 437.405
AISAT 27 May 00:44:48 00:48:01 19° 272° (W) 00:51:08 437.250
DUCHIFAT 1 27 May 00:45:33 00:49:50 64° 102° (ESE) 00:54:04 145.980
SPROUT 27 May 00:49:13 00:53:33 80° 256° (WSW) 00:57:56 437.525
AIST 2 27 May 01:00:19 01:03:18 18° 7° (N) 01:06:17 435.215
TIGRISAT 27 May 01:04:47 01:09:04 46° 293° (WNW) 01:13:13 435.000
BUGSAT 1 27 May 01:09:03 01:13:22 78° 104° (ESE) 01:17:38 437.445
BEESAT 2 27 May 01:11:30 01:14:55 24° 22° (NNE) 01:18:19 435.950
TISAT 1 27 May 01:13:01 01:17:14 61° 258° (WSW) 01:21:30 437.305
UNISAT 6 27 May 01:25:26 01:29:24 31° 297° (WNW) 01:33:12 437.425
QB50P1 27 May 01:27:43 01:31:56 52° 291° (WNW) 01:36:05 145.935-145.965
POLYITAN 1 27 May 01:29:42 01:33:54 49° 291° (WNW) 01:38:02 437.675
O/OREOS (USA 219) 27 May 01:31:00 01:35:27 64° 56° (NE) 01:39:54 437.305
PCSat 27 May 01:42:11 01:47:03 36° 116° (ESE) 01:51:59 145.827
DANDE 27 May 01:43:41 01:51:35 51° 269° (W) 01:58:04 436.750
STARS 27 May 01:45:52 01:47:24 12° 51° (NE) 01:49:07 437.465
ISS 27 May 01:56:35 01:59:38 38° 159° (SSE) 02:02:42 145.825
NANOSAT C BR1 27 May 01:59:26 02:03:11 29° 297° (WNW) 02:06:51 145.865
BEESAT 3 27 May 02:00:41 02:04:38 43° 36° (NE) 02:08:33 437.485
ITUPSAT 1 27 May 02:02:29 02:07:15 79° 74° (ENE) 02:12:03 437.325
Cosmos 2499 27 May 02:02:55 02:09:37 42° 66° (ENE) 02:16:19 435.465 / 435.565
QB50P2 27 May 02:07:35 02:11:08 25° 299° (WNW) 02:14:34 145.880/145.840
ANTELSAT 27 May 02:09:42 02:12:21 15° 306° (NW) 02:14:52 437.575/2403.000
BEESAT 27 May 02:10:12 02:14:59 88° 254° (WSW) 02:19:48 436.000
KKS-1 27 May 02:15:16 02:19:01 27° 61° (ENE) 02:22:49 437.445
Oscar 19 27 May 02:15:41 02:20:01 27° 91° (E) 02:24:23 437.125/150
CUSAT 1 27 May 02:16:32 02:22:33 26° 280° (W) 02:27:32 437.405
SWISSCUBE 27 May 02:18:46 02:23:31 71° 257° (WSW) 02:28:18 437.505
POPSAT HIP 1 27 May 02:20:05 02:23:19 21° 301° (WNW) 02:26:28 437.405
DUCHIFAT 1 27 May 02:22:05 02:25:16 20° 301° (WNW) 02:28:21 145.980
SPROUT 27 May 02:28:51 02:30:28 12° 277° (W) 02:31:54 437.525
ITAMSAT 1 27 May 02:31:06 02:33:14 13° 82° (E) 02:35:38 435.822/435.867
GONETS M04 27 May 02:35:37 02:43:35 39° 276° (W) 02:51:21
AIST 2 27 May 02:39:05 02:43:01 34° 31° (NNE) 02:46:54 435.215
BUGSAT 1 27 May 02:45:28 02:48:21 17° 303° (WNW) 02:51:08 437.445
BEESAT 2 27 May 02:49:26 02:53:36 78° 45° (NE) 02:57:42 435.950
Gurwin Techsat 1B 27 May 03:07:25 03:11:40 24° 90° (E) 03:16:00 435.225
O/OREOS (USA 219) 27 May 03:11:09 03:14:30 20° 256° (WSW) 03:17:45 437.305
STARS 27 May 03:18:40 03:23:03 60° 70° (ENE) 03:27:29 437.465
PCSat 27 May 03:24:58 03:30:19 57° 317° (NW) 03:35:42 145.827
DANDE 27 May 03:29:27 03:32:52 13° 291° (WNW) 03:35:41 436.750
ISS 27 May 03:32:36 03:35:51 67° 179° (S) 03:39:06 145.825
BEESAT 3 27 May 03:38:46 03:42:36 37° 237° (WSW) 03:46:20 437.485
ITUPSAT 1 27 May 03:42:36 03:45:48 17° 273° (W) 03:48:52 437.325
MOZHAYETS 4 27 May 03:44:54 03:48:16 21° 58° (ENE) 03:51:43
BEESAT 27 May 03:50:53 03:53:37 15° 275° (W) 03:56:11 436.000
KKS-1 27 May 03:51:05 03:55:27 49° 260° (W) 03:59:52 437.445
Oscar 19 27 May 03:54:39 03:59:45 57° 292° (WNW) 04:04:47 437.125/150
Cosmos 2499 27 May 03:56:11 04:02:56 48° 269° (W) 04:09:38 435.465 / 435.565
SWISSCUBE 27 May 04:00:40 04:02:22 11° 278° (W) 04:03:50 437.505
AO-7 27 May 04:06:34 04:12:12 20° 83° (E) 04:18:10 29.400- 29.500
ITAMSAT 1 27 May 04:08:35 04:13:50 70° 104° (ESE) 04:19:03 435.822/435.867
AIST 2 27 May 04:17:38 04:21:49 57° 232° (SW) 04:25:56 435.215
SO-50 27 May 04:18:40 04:23:06 40° 123° (ESE) 04:27:41 436.795
Cosmos 2491 27 May 04:26:35 04:31:38 16° 38° (NE) 04:37:00 435.465 / 435.565
BEESAT 2 27 May 04:28:19 04:31:14 18° 244° (WSW) 04:34:02 435.950
HORYU 2 27 May 04:29:10 04:32:39 22° 91° (E) 04:36:11 437.375
Gurwin Techsat 1B 27 May 04:46:51 04:52:09 65° 291° (WNW) 04:57:25 435.225
STARS 27 May 04:56:31 04:59:55 21° 270° (W) 05:03:14 437.465
JAS-2 27 May 04:57:42 05:02:34 38° 96° (E) 05:07:27 435.910
